EUTELSAT 7 WEST A (37816 NORAD) Tracking and Keplerian Element Data

This shows tracking and keplerian element data for the satellite.

Feedback or suggestion? Click here.




ElementValue
Catalog37816
NameEUTELSAT 7 WEST A
Epoch Orbit4889
Epoch Day34.75359954
Epoch Year2025
RAAN347.3357
Inclination0.0647
Eccentricity0.0004437
Argument of Perigee254.5429
Mean Anonmoly156.253
Mean Motion1.00270892
Decay Rate-5.6E-07
L11 37816U 11051A 25034.75359954 -.00000056 00000+0 00000+0 0 9994
L22 37816 0.0647 347.3357 0004437 254.5429 156.2530 1.00270892 48895



Live tracking and technical data element details for EUTELSAT 7 WEST A (NORAD 37816). EUTELSAT 7 WEST A can be tracked NOW for your location showing map with azimuth and elevation plus other details from your city location.







IsCatalogInMostPopularTable: catalog: 37816, numindb: 412
Update: records affected: 1



GetName: 37816 EUTELSAT 7 WEST A

Hit Count: updated at: Thu, 22 May 2025 02:46:02 GMT